Time,TemperatureF,DewpointF,PressureIn,WindDirection,WindDirectionDegrees,WindSpeedMPH,WindSpeedGustMPH,Humidity,HourlyPrecipIn,Conditions,Clouds,dailyrainin,SoftwareType,DateUTC
2013-04-23 00:22:00,19.0,15.0,30.32,NW,308,5.0,8.0,84,0.00,,,0.00,,2013-04-23 05:22:00,
2013-04-23 00:32:00,19.0,15.0,30.32,NW,308,5.0,8.0,84,0.00,,,0.00,,2013-04-23 05:32:00,
2013-04-23 00:42:00,19.0,15.0,30.32,NW,308,5.0,8.0,84,0.00,,,0.00,,2013-04-23 05:42:00,
2013-04-23 00:51:00,19.0,16.0,30.30,WNW,287,5.0,8.0,87,0.00,,,0.00,,2013-04-23 05:51:00,
2013-04-23 01:12:00,19.0,16.0,30.30,WNW,287,5.0,8.0,87,0.00,,,0.00,,2013-04-23 06:12:00,
2013-04-23 01:21:00,19.0,16.0,30.30,WNW,287,5.0,8.0,87,0.00,,,0.00,,2013-04-23 06:21:00,
2013-04-23 01:33:00,19.0,16.0,30.30,WNW,287,5.0,8.0,87,0.00,,,0.00,,2013-04-23 06:33:00,
2013-04-23 01:42:00,19.0,16.0,30.30,WNW,287,5.0,8.0,87,0.00,,,0.00,,2013-04-23 06:42:00,
2013-04-23 01:51:00,19.0,17.0,30.29,West,264,6.0,7.0,90,0.00,,,0.00,,2013-04-23 06:51:00,
2013-04-23 02:21:00,19.0,17.0,30.29,West,264,6.0,7.0,90,0.00,,,0.00,,2013-04-23 07:21:00,
2013-04-23 02:32:00,19.0,17.0,30.29,West,264,6.0,7.0,90,0.00,,,0.00,,2013-04-23 07:32:00,
2013-04-23 02:42:00,19.0,17.0,30.29,West,264,6.0,7.0,90,0.00,,,0.00,,2013-04-23 07:42:00,
2013-04-23 02:51:00,19.0,17.0,30.27,WSW,252,6.0,8.0,89,0.00,,,0.00,,2013-04-23 07:51:00,
2013-04-23 03:21:00,19.0,17.0,30.27,WSW,252,6.0,8.0,89,0.00,,,0.00,,2013-04-23 08:21:00,
2013-04-23 03:32:00,19.0,17.0,30.27,WSW,252,6.0,8.0,89,0.00,,,0.00,,2013-04-23 08:32:00,
2013-04-23 03:42:00,19.0,17.0,30.27,WSW,252,6.0,8.0,89,0.00,,,0.00,,2013-04-23 08:42:00,
2013-04-23 03:51:00,19.0,16.0,30.25,WSW,250,6.0,9.0,87,0.00,,,0.00,,2013-04-23 08:51:00,
2013-04-23 04:11:00,19.0,16.0,30.25,WSW,250,6.0,9.0,87,0.00,,,0.00,,2013-04-23 09:11:00,
2013-04-23 04:21:00,19.0,16.0,30.25,WSW,250,6.0,9.0,87,0.00,,,0.00,,2013-04-23 09:21:00,
2013-04-23 04:33:00,19.0,16.0,30.25,WSW,250,6.0,9.0,87,0.00,,,0.00,,2013-04-23 09:33:00,
2013-04-23 04:43:00,19.0,16.0,30.25,WSW,250,6.0,9.0,87,0.00,,,0.00,,2013-04-23 09:43:00,
2013-04-23 04:51:00,19.0,15.0,30.22,West,262,5.0,9.0,81,0.00,,,0.00,,2013-04-23 09:51:00,
2013-04-23 05:22:00,19.0,15.0,30.22,West,262,5.0,9.0,81,0.00,,,0.00,,2013-04-23 10:22:00,
2013-04-23 05:33:00,19.0,15.0,30.22,West,262,5.0,9.0,81,0.00,,,0.00,,2013-04-23 10:33:00,
2013-04-23 05:42:00,19.0,15.0,30.22,West,262,5.0,9.0,81,0.00,,,0.00,,2013-04-23 10:42:00,
2013-04-23 05:51:00,19.0,15.0,30.19,WSW,258,5.0,8.0,82,0.00,,,0.00,,2013-04-23 10:51:00,
2013-04-23 06:12:00,19.0,15.0,30.19,WSW,258,5.0,8.0,82,0.00,,,0.00,,2013-04-23 11:12:00,
2013-04-23 06:21:00,19.0,15.0,30.19,WSW,258,5.0,8.0,82,0.00,,,0.00,,2013-04-23 11:21:00,
2013-04-23 06:32:00,19.0,15.0,30.19,WSW,258,5.0,8.0,82,0.00,,,0.00,,2013-04-23 11:32:00,
2013-04-23 06:42:00,19.0,15.0,30.19,WSW,258,5.0,8.0,82,0.00,,,0.00,,2013-04-23 11:42:00,
2013-04-23 06:51:00,18.0,14.0,30.17,WSW,243,2.0,7.0,85,0.00,,,0.00,,2013-04-23 11:51:00,
2013-04-23 07:22:00,18.0,14.0,30.17,WSW,243,2.0,7.0,85,0.00,,,0.00,,2013-04-23 12:22:00,
2013-04-23 07:32:00,18.0,14.0,30.17,WSW,243,2.0,7.0,85,0.00,,,0.00,,2013-04-23 12:32:00,
2013-04-23 07:42:00,18.0,14.0,30.17,WSW,243,2.0,7.0,85,0.00,,,0.00,,2013-04-23 12:42:00,
2013-04-23 07:51:00,21.0,16.0,30.15,WSW,256,5.0,10.0,79,0.00,,,0.00,,2013-04-23 12:51:00,
2013-04-23 08:11:00,21.0,16.0,30.15,WSW,256,5.0,10.0,79,0.00,,,0.00,,2013-04-23 13:11:00,
2013-04-23 08:21:00,21.0,16.0,30.15,WSW,256,5.0,10.0,79,0.00,,,0.00,,2013-04-23 13:21:00,
2013-04-23 08:32:00,21.0,16.0,30.15,WSW,256,5.0,10.0,79,0.00,,,0.00,,2013-04-23 13:32:00,
2013-04-23 08:42:00,21.0,16.0,30.15,WSW,256,5.0,10.0,79,0.00,,,0.00,,2013-04-23 13:42:00,
2013-04-23 08:51:00,25.0,18.0,30.13,West,259,8.0,13.0,75,0.00,,,0.00,,2013-04-23 13:51:00,
2013-04-23 09:11:00,25.0,18.0,30.13,West,259,8.0,13.0,75,0.00,,,0.00,,2013-04-23 14:11:00,
2013-04-23 09:22:00,25.0,18.0,30.13,West,259,8.0,13.0,75,0.00,,,0.00,,2013-04-23 14:22:00,
2013-04-23 09:32:00,25.0,18.0,30.13,West,259,8.0,13.0,75,0.00,,,0.00,,2013-04-23 14:32:00,
2013-04-23 09:42:00,25.0,18.0,30.13,West,259,8.0,13.0,75,0.00,,,0.00,,2013-04-23 14:42:00,
2013-04-23 09:51:00,28.0,21.0,30.12,West,263,9.0,17.0,72,0.00,,,0.00,,2013-04-23 14:51:00,
2013-04-23 10:21:00,28.0,21.0,30.12,West,263,9.0,17.0,72,0.00,,,0.00,,2013-04-23 15:21:00,
2013-04-23 10:32:00,28.0,21.0,30.12,West,263,9.0,17.0,72,0.00,,,0.00,,2013-04-23 15:32:00,
2013-04-23 10:42:00,28.0,21.0,30.12,West,263,9.0,17.0,72,0.00,,,0.00,,2013-04-23 15:42:00,
2013-04-23 10:51:00,32.0,23.0,30.11,West,275,13.0,21.0,68,0.00,,,0.00,,2013-04-23 15:51:00,
2013-04-23 11:12:00,32.0,23.0,30.11,West,275,13.0,21.0,68,0.00,,,0.00,,2013-04-23 16:12:00,
2013-04-23 11:23:00,32.0,23.0,30.11,West,275,13.0,21.0,68,0.00,,,0.00,,2013-04-23 16:23:00,
2013-04-23 11:34:00,32.0,23.0,30.11,West,275,13.0,21.0,68,0.00,,,0.00,,2013-04-23 16:34:00,
2013-04-23 11:43:00,32.0,23.0,30.11,West,275,13.0,21.0,68,0.00,,,0.00,,2013-04-23 16:43:00,
2013-04-23 11:51:00,36.0,23.0,30.09,WNW,285,16.0,24.0,61,0.00,,,0.00,,2013-04-23 16:51:00,
2013-04-23 12:22:00,36.0,23.0,30.09,WNW,285,16.0,24.0,61,0.00,,,0.00,,2013-04-23 17:22:00,
2013-04-23 12:32:00,36.0,23.0,30.09,WNW,285,16.0,24.0,61,0.00,,,0.00,,2013-04-23 17:32:00,
2013-04-23 12:42:00,36.0,23.0,30.09,WNW,285,16.0,24.0,61,0.00,,,0.00,,2013-04-23 17:42:00,
2013-04-23 12:51:00,39.0,25.0,30.08,WNW,284,16.0,25.0,56,0.00,,,0.00,,2013-04-23 17:51:00,
2013-04-23 13:22:00,39.0,25.0,30.08,WNW,284,16.0,25.0,56,0.00,,,0.00,,2013-04-23 18:22:00,
2013-04-23 13:32:00,39.0,25.0,30.08,WNW,284,16.0,25.0,56,0.00,,,0.00,,2013-04-23 18:32:00,
2013-04-23 13:42:00,39.0,25.0,30.08,WNW,284,16.0,25.0,56,0.00,,,0.00,,2013-04-23 18:42:00,
2013-04-23 13:51:00,41.0,25.0,30.07,WNW,290,17.0,29.0,52,0.00,,,0.00,,2013-04-23 18:51:00,
2013-04-23 14:22:00,41.0,25.0,30.07,WNW,290,17.0,29.0,52,0.00,,,0.00,,2013-04-23 19:22:00,
2013-04-23 14:32:00,41.0,25.0,30.07,WNW,290,17.0,29.0,52,0.00,,,0.00,,2013-04-23 19:32:00,
2013-04-23 14:42:00,41.0,25.0,30.07,WNW,290,17.0,29.0,52,0.00,,,0.00,,2013-04-23 19:42:00,
2013-04-23 14:51:00,43.0,26.0,30.04,WNW,288,17.0,25.0,51,0.00,,,0.00,,2013-04-23 19:51:00,
2013-04-23 15:11:00,43.0,26.0,30.04,WNW,288,17.0,25.0,51,0.00,,,0.00,,2013-04-23 20:11:00,
2013-04-23 15:22:00,43.0,26.0,30.04,WNW,288,17.0,25.0,51,0.00,,,0.00,,2013-04-23 20:22:00,
2013-04-23 15:32:00,43.0,26.0,30.04,WNW,288,17.0,25.0,51,0.00,,,0.00,,2013-04-23 20:32:00,
2013-04-23 15:42:00,43.0,26.0,30.04,WNW,288,17.0,25.0,51,0.00,,,0.00,,2013-04-23 20:42:00,
2013-04-23 15:51:00,43.0,24.0,30.02,WNW,291,15.0,31.0,48,0.00,,,0.00,,2013-04-23 20:51:00,
2013-04-23 16:12:00,43.0,24.0,30.02,WNW,291,15.0,31.0,48,0.00,,,0.00,,2013-04-23 21:12:00,
2013-04-23 16:22:00,43.0,24.0,30.02,WNW,291,15.0,31.0,48,0.00,,,0.00,,2013-04-23 21:22:00,
2013-04-23 16:33:00,43.0,24.0,30.02,WNW,291,15.0,31.0,48,0.00,,,0.00,,2013-04-23 21:33:00,
2013-04-23 16:43:00,43.0,24.0,30.02,WNW,291,15.0,31.0,48,0.00,,,0.00,,2013-04-23 21:43:00,
2013-04-23 16:51:00,43.0,21.0,30.00,WNW,296,15.0,29.0,41,0.00,,,0.00,,2013-04-23 21:51:00,
2013-04-23 17:12:00,43.0,21.0,30.00,WNW,296,15.0,29.0,41,0.00,,,0.00,,2013-04-23 22:12:00,
2013-04-23 17:22:00,43.0,21.0,30.00,WNW,296,15.0,29.0,41,0.00,,,0.00,,2013-04-23 22:22:00,
2013-04-23 17:33:00,43.0,21.0,30.00,WNW,296,15.0,29.0,41,0.00,,,0.00,,2013-04-23 22:33:00,
2013-04-23 17:42:00,43.0,21.0,30.00,WNW,296,15.0,29.0,41,0.00,,,0.00,,2013-04-23 22:42:00,
2013-04-23 17:51:00,41.0,26.0,30.00,NW,307,13.0,27.0,55,0.00,,,0.00,,2013-04-23 22:51:00,
2013-04-23 18:12:00,41.0,26.0,30.00,NW,307,13.0,27.0,55,0.00,,,0.00,,2013-04-23 23:12:00,
2013-04-23 18:22:00,41.0,26.0,30.00,NW,307,13.0,27.0,55,0.00,,,0.00,,2013-04-23 23:22:00,
2013-04-23 18:32:00,41.0,26.0,30.00,NW,307,13.0,27.0,55,0.00,,,0.00,,2013-04-23 23:32:00,
2013-04-23 18:42:00,41.0,26.0,30.00,NW,307,13.0,27.0,55,0.00,,,0.00,,2013-04-23 23:42:00,
2013-04-23 18:51:00,41.0,26.0,29.98,NW,318,9.0,17.0,54,0.00,,,0.00,,2013-04-23 23:51:00,
2013-04-23 19:11:00,41.0,26.0,29.98,NW,318,9.0,17.0,54,0.00,,,0.00,,2013-04-24 00:11:00,
2013-04-23 19:22:00,41.0,26.0,29.98,NW,318,9.0,17.0,54,0.00,,,0.00,,2013-04-24 00:22:00,
2013-04-23 19:32:00,41.0,26.0,29.98,NW,318,9.0,17.0,54,0.00,,,0.00,,2013-04-24 00:32:00,
2013-04-23 19:41:00,41.0,26.0,29.98,NW,318,9.0,17.0,54,0.00,,,0.00,,2013-04-24 00:41:00,
2013-04-23 19:51:00,34.0,29.0,29.99,West,279,9.0,27.0,84,0.00,,,0.00,,2013-04-24 00:51:00,
2013-04-23 20:21:00,34.0,29.0,29.99,West,279,9.0,27.0,84,0.00,,,0.00,,2013-04-24 01:21:00,
2013-04-23 20:32:00,34.0,29.0,29.99,West,279,9.0,27.0,84,0.00,,,0.00,,2013-04-24 01:32:00,
2013-04-23 20:42:00,34.0,29.0,29.99,West,279,9.0,27.0,84,0.00,,,0.00,,2013-04-24 01:42:00,
2013-04-23 20:51:00,36.0,29.0,29.98,North,359,7.0,20.0,77,0.00,,,0.00,,2013-04-24 01:51:00,
2013-04-23 21:29:00,36.0,29.0,29.98,North,359,7.0,20.0,77,0.00,,,0.00,,2013-04-24 02:29:00,
2013-04-23 21:47:00,36.0,29.0,29.98,North,359,7.0,20.0,77,0.00,,,0.00,,2013-04-24 02:47:00,
2013-04-23 21:51:00,30.0,27.0,29.97,ENE,75,4.0,7.0,87,0.00,,,0.00,,2013-04-24 02:51:00,
2013-04-23 22:17:00,30.0,27.0,29.97,ENE,75,4.0,7.0,87,0.00,,,0.00,,2013-04-24 03:17:00,
2013-04-23 22:29:00,30.0,27.0,29.97,ENE,75,4.0,7.0,87,0.00,,,0.00,,2013-04-24 03:29:00,
2013-04-23 22:40:00,30.0,27.0,29.97,ENE,75,4.0,7.0,87,0.00,,,0.00,,2013-04-24 03:40:00,
2013-04-23 22:49:00,30.0,27.0,29.97,ENE,75,4.0,7.0,87,0.00,,,0.00,,2013-04-24 03:49:00,
2013-04-23 22:51:00,30.0,28.0,29.96,SSE,149,2.0,5.0,92,0.00,,,0.00,,2013-04-24 03:51:00,
2013-04-23 23:12:00,30.0,28.0,29.96,SSE,149,2.0,5.0,92,0.00,,,0.00,,2013-04-24 04:12:00,
2013-04-23 23:23:00,30.0,28.0,29.96,SSE,149,2.0,5.0,92,0.00,,,0.00,,2013-04-24 04:23:00,
2013-04-23 23:33:00,30.0,28.0,29.96,SSE,149,2.0,5.0,92,0.00,,,0.00,,2013-04-24 04:33:00,
2013-04-23 23:43:00,30.0,28.0,29.96,SSE,149,2.0,5.0,92,0.00,,,0.00,,2013-04-24 04:43:00,
2013-04-23 23:51:00,32.0,28.0,29.95,SE,127,2.0,5.0,85,0.00,,,0.00,,2013-04-24 04:51:00,